IRIDIUM 33 DEB, 33775

Orbit data source: Space-Track

IRIDIUM 33 DEB, 33775 is space debris in LEO originally from a launch on Sun, 14 Sep 1997 UTC launched from the Tyuratam Missile And Space Complex (TTMTR). The debris from Iridium 33, an American commercial communications satellite, has been tracked extensively since its accidental collision with the defunct Russian satellite Cosmos 2251 in 2009. This event, occurring at high speed in low Earth orbit (LEO), generated thousands of pieces of space debris, significantly increasing the risk of further collisions. The Iridium 33 debris cloud has impacted space traffic management and orbital debris mitigation strategies, making it a subject of ongoing study in space situational awareness.

Loading next visibility...
Identifier
33775, 1997-051N
Orbit
LEO
Country
Flag of USUS
Related business
Manufacturer
Unknown
Mission
Spacecraft
Bus & Motor
Unknown
Mass
Unknown
Launch date (UTC)
1997-09-14 (29 years ago)
Launch vehicle
Unknown
Launch site
Tyuratam Missile And Space Complex (TTMTR)
Object type
Payload
Rocket body
Debris
Shape & HBR
Unknown shape, 0.3 m
Radar Cross Section
Medium (>0.1 m² and <1 m²)

Expand to show TLE details & history
Last TLE update: 13 hours ago

TLE from 13 hours ago
0 IRIDIUM 33 DEB
1 33775U 97051N   26209.02124508  .00001356  00000-0  40616-3 0  9993
2 33775  86.3651 312.4858 0015050 127.8496  47.3000 14.42118531914159
Epoch: 2026-07-28T00:30Z
TLE epoch observation values (Epoch: 2026-07-28T00:30:35.574Z)
Latitude
4.62316°
Longitude
178.84836°
Altitude
746.818 km
Speed
7.485 km/s
True Right ascension
08h 48m 46s
True Declination
4° 35' 44"
Sunlit
Object was in daylight at epoch
Visualization orbit readout
Latitude
Unknown
Longitude
Unknown
Altitude
Unknown
Speed
Unknown
Apparent Right ascension
Unknown
Apparent Declination
Unknown
Sunlit
N/A
Visualization observer readout
Local Sidereal Time
02:40:42
Azimuth
Unknown
Elevation
Unknown
Doppler factor
Unknown
Orbital elements
Apogee altitude
759.187 km
Perigee altitude
737.736 km
Semi-major axis
7,126.598 km
Eccentricity
0.00151
Inclination
86.3651°
RAAN
312.4858°
Arg. of periapsis
127.8496°
True anomaly
47.42691°
Mean anomaly
47.3°
Eccentric anomaly
47.36344°
Mean motion
3.60761 °/min
Orbital period
99.79 mins
BSTAR
0.00040616
Loading maneuver chart data...
Computing Atmospheric mass density...
Loading historical data...
Loading historical data...
Loading historical data...
Loading historical data...
Loading historical data...
Loading historical data...
Loading historical data...

Documentation

Showing up to 5 results
|